カタログに戻る

THOR BURNER 2 R/B

運用中SSO
NORAD 2741·ROCKET BODY·🇺🇸 United States

打ち上げ Feb 8, 1967 から Vandenberg Space Force Base

Loading…

次のパス (今後24時間)

TLE

最新Source: Space-Track

元期: Sep 14, 2026, 14:26 UTC

1 02741U 67010B   26257.60145842  .00000123  00000-0  65985-4 0  9993
2 02741  98.9842 214.1451 0053035  26.8288 333.5619 14.29276460 98046

AllMySatでTHOR BURNER 2 R/Bをリアルタイム追跡

Download on the App Store